FW4773 Weather Reports


time (UTC)temp
C
wind
direction
speed
KPH
gust
KPH
rain 1hr
cm
rain 24hr
cm
rain mn
cm
humidity
%
barometer
mb
20260510164555 25 205 4.8 9.7 0.00 0.00 0.00 61 1016.0
20260510163106 24 124 4.8 11.3 0.00 0.00 0.00 64 1016.0
20260510161557 25 70 1.6 9.7 0.00 0.00 0.00 62 1016.1
20260510160053 25 257 1.6 6.4 0.00 0.00 0.00 51 1015.9
20260510154539 25 32 1.6 8.0 0.00 0.00 0.00 60 1016.1
20260510153041 25 92 0.0 9.7 0.00 0.00 0.00 55 1016.0
20260510151532 24 199 1.6 6.4 0.00 0.00 0.00 57 1016.1
20260510150027 24 356 0.0 4.8 0.00 0.00 0.00 58 1015.8
20260510144536 23 210 4.8 6.4 0.00 0.00 0.00 58 1015.7
20260510143025 23 84 0.0 3.2 0.00 0.00 0.00 61 1015.5
20260510141522 22 216 0.0 0.0 0.00 0.00 0.00 64 1015.5
20260510140112 22 214 0.0 0.0 0.00 0.00 0.00 67 1015.6
20260510134507 21 213 0.0 1.6 0.00 0.00 0.00 69 1015.5
20260510133004 21 238 0.0 3.2 0.00 0.00 0.00 72 1015.6
20260510131558 20 82 0.0 0.0 0.00 0.00 0.00 75 1015.7
20260510130059 18 82 0.0 1.6 0.00 0.00 0.00 79 1015.8
20260510124551 17 51 0.0 4.8 0.00 0.00 0.00 82 1016.0
20260510123043 16 20 0.0 4.8 0.00 0.00 0.00 85 1015.8
20260510121538 16 355 0.0 4.8 0.00 0.00 0.00 86 1015.7
20260510120034 15 2 0.0 0.0 0.00 0.00 0.00 91 1015.7
20260510114529 13 2 0.0 1.6 0.00 0.00 0.00 95 1015.6
20260510113025 12 330 0.0 1.6 0.00 0.00 0.00 95 1015.5
20260510111522 11 330 0.0 1.6 0.00 0.00 0.00 95 1015.0
20260510110024 11 330 0.0 1.6 0.00 0.00 0.00 94 1014.7
20260510104514 -17 0.0 0.0 0.00 0.00 0.00 1014.5
20260510103010 -17 0.0 0.0 0.00 0.00 0.00 1014.3
20260510101504 -17 0.0 0.0 0.00 0.00 0.00 1014.2
20260510100059 10 340 0.0 0.0 0.00 0.00 0.00 95 1014.2
20260510094558 10 333 0.0 0.0 0.00 0.00 0.00 95 1014.2
20260510093107 10 333 0.0 0.0 0.00 0.00 0.00 94 1014.2
20260510091556 10 333 0.0 0.0 0.00 0.00 0.00 95 1014.0
20260510090053 10 333 0.0 0.0 0.00 0.00 0.00 95 1013.9
20260510084552 10 333 0.0 0.0 0.00 0.00 0.00 94 1013.6
20260510083050 10 333 0.0 0.0 0.00 0.00 0.00 94 1013.5
20260510081605 10 333 0.0 0.0 0.00 0.00 0.00 94 1013.3
20260510080037 10 351 0.0 0.0 0.00 0.00 0.00 94 1013.0
20260510074635 10 351 0.0 0.0 0.00 0.00 0.00 94 1013.0
20260510073039 11 351 0.0 0.0 0.00 0.00 0.00 93 1012.8
20260510071529 11 351 0.0 0.0 0.00 0.00 0.00 94 1012.8
20260510070026 11 351 0.0 0.0 0.00 0.00 0.00 94 1012.7
20260510064533 11 351 0.0 0.0 0.00 0.00 0.00 93 1012.8
20260510063032 11 351 0.0 0.0 0.00 0.00 0.00 93 1012.8
20260510061521 12 351 0.0 0.0 0.00 0.00 0.00 93 1012.7
20260510060027 12 103 0.0 0.0 0.00 0.00 0.00 93 1012.5
20260510054516 12 103 0.0 0.0 0.00 0.00 0.00 93 1012.6
20260510053010 12 103 0.0 0.0 0.00 0.00 0.00 93 1012.8
20260510051506 12 103 0.0 0.0 0.00 0.00 0.00 93 1012.8
20260510050003 12 103 0.0 0.0 0.00 0.00 0.00 92 1012.8
20260510044617 13 103 0.0 0.0 0.00 0.00 0.00 92 1013.0
20260510043100 13 103 0.0 0.0 0.00 0.00 0.00 92 1012.9
20260510041601 13 103 0.0 0.0 0.00 0.00 0.00 91 1012.8
20260510040049 13 103 0.0 0.0 0.00 0.00 0.00 91 1012.7
20260510034547 14 103 0.0 0.0 0.00 0.00 0.00 90 1012.6
20260510033057 14 103 0.0 0.0 0.00 0.00 0.00 90 1012.5
20260510031542 15 103 0.0 0.0 0.00 0.00 0.00 89 1012.5
20260510030046 15 103 0.0 0.0 0.00 0.00 0.00 88 1012.3
20260510024538 15 103 0.0 0.0 0.00 0.00 0.00 86 1012.3
20260510023036 16 103 0.0 0.0 0.00 0.00 0.00 86 1012.3
20260510021633 16 103 0.0 0.0 0.00 0.00 0.00 85 1012.3
20260510020032 16 103 0.0 0.0 0.00 0.00 0.00 83 1012.2
20260510014534 16 103 0.0 0.0 0.00 0.00 0.00 83 1011.9
20260510013026 17 115 0.0 0.0 0.00 0.00 0.00 82 1011.8
20260510011525 17 115 0.0 0.0 0.00 0.00 0.00 81 1011.7
20260510010026 17 93 0.0 0.0 0.00 0.00 0.00 80 1011.7
20260510004619 17 96 0.0 0.0 0.00 0.00 0.00 78 1011.6
20260510003017 18 96 0.0 3.2 0.00 0.00 0.00 75 1011.4
20260510001515 18 107 0.0 1.6 0.00 0.00 0.00 74 1011.3
20260510000018 18 74 0.0 4.8 0.00 0.00 0.00 73 1011.1
20260509234514 18 185 3.2 6.4 0.00 0.00 0.00 72 1010.9
20260509233011 19 164 3.2 6.4 0.00 0.00 0.00 71 1011.0
20260509231508 20 219 3.2 9.7 0.00 0.00 0.00 69 1010.9
20260509230009 20 204 1.6 6.4 0.00 0.00 0.00 68 1010.9
20260509224503 20 173 3.2 9.7 0.00 0.00 0.00 67 1010.7
20260509223007 20 187 3.2 12.9 0.00 0.00 0.00 68 1010.9
20260509221559 21 217 3.2 8.0 0.00 0.00 0.00 68 1010.9
20260509214556 21 94 0.0 6.4 0.00 0.00 0.00 67 1010.9
20260509213055 21 139 0.0 11.3 0.00 0.00 0.00 66 1010.9
20260509211549 21 111 0.0 4.8 0.00 0.00 0.00 66 1010.7
20260509210047 21 100 1.6 11.3 0.00 0.00 0.00 67 1010.6
20260509204545 21 139 3.2 12.9 0.00 0.00 0.00 68 1010.6
20260509203043 21 206 3.2 8.0 0.00 0.00 0.00 70 1010.8
20260509201549 20 352 0.0 8.0 0.00 0.00 0.00 71 1011.0
20260509200043 20 45 3.2 9.7 0.00 0.00 0.00 73 1011.2
20260509194534 20 2 3.2 8.0 0.00 0.00 0.00 70 1011.3
20260509193037 20 66 0.0 8.0 0.00 0.00 0.00 69 1011.3
20260509191529 20 52 0.0 0.0 0.00 0.00 0.00 71 1011.3
20260509190025 19 353 0.0 0.0 0.00 0.00 0.00 70 1012.0
20260509184530 20 218 0.0 8.0 0.00 0.00 0.00 66 1012.3
20260509183021 20 210 4.8 8.0 0.00 0.00 0.00 60 1012.2
20260509181518 21 200 4.8 9.7 0.00 0.00 0.00 59 1012.4
20260509180017 21 272 3.2 16.1 0.00 0.00 0.00 60 1012.6
20260509174516 20 211 4.8 11.3 0.00 0.00 0.00 59 1012.6
20260509173011 21 209 6.4 11.3 0.00 0.00 0.00 59 1012.6
20260509171514 21 214 6.4 19.3 0.00 0.00 0.00 57 1012.7
20260509170007 20 216 6.4 22.5 0.00 0.00 0.00 57 1012.8